CW9086 Weather Reports


Display with metric or nautical units.
time (UTC)temp
F
wind
direction
speed
MPH
gust
MPH
rain 1hr
in
rain 24hr
in
rain mn
in
humidity
%
barometer
mb
20260508004106 60 214 0.0 3.0 0.00 0.00 0.00 65 1017.6
20260508003605 60 216 1.0 3.0 0.00 0.00 0.00 65 1017.7
20260508002604 60 212 1.0 3.0 0.00 0.00 0.00 65 1017.7
20260508002106 60 212 0.0 2.0 0.00 0.00 0.00 65 1017.7
20260508001604 60 210 0.0 2.0 0.00 0.00 0.00 65 1017.7
20260508001104 60 209 1.0 2.0 0.00 0.00 0.00 65 1017.8
20260508000104 60 210 0.0 2.0 0.00 0.00 0.00 66 1017.7
20260507235605 60 210 0.0 3.0 0.00 0.00 0.00 66 1017.8
20260507235105 60 216 1.0 3.0 0.00 0.00 0.00 65 1017.8
20260507234605 60 213 0.0 3.0 0.00 0.00 0.00 65 1017.8
20260507234105 60 213 1.0 3.0 0.00 0.00 0.00 65 1017.8
20260507233604 60 212 1.0 2.0 0.00 0.00 0.00 66 1017.8
20260507233105 60 212 1.0 3.0 0.00 0.00 0.00 65 1017.9
20260507232604 60 212 0.0 3.0 0.00 0.00 0.00 66 1018.0
20260507232104 60 213 1.0 3.0 0.00 0.00 0.00 66 1018.0
20260507231604 60 211 0.0 3.0 0.00 0.00 0.00 65 1018.0
20260507231105 60 214 1.0 3.0 0.00 0.00 0.00 66 1018.1
20260507230604 60 209 1.0 3.0 0.00 0.00 0.00 66 1018.2
20260507225105 60 214 1.0 3.0 0.00 0.00 0.00 65 1018.4
20260507224604 60 201 1.0 3.0 0.00 0.00 0.00 64 1018.5
20260507224104 60 210 1.0 3.0 0.00 0.00 0.00 65 1018.6
20260507223105 61 212 1.0 2.0 0.00 0.00 0.00 64 1018.7
20260507222605 61 212 0.0 2.0 0.00 0.00 0.00 65 1018.7
20260507222105 60 208 1.0 3.0 0.00 0.00 0.00 65 1018.6
20260507221605 60 211 1.0 3.0 0.00 0.00 0.00 64 1018.8
20260507221104 60 211 0.0 3.0 0.00 0.00 0.00 65 1018.8
20260507220604 60 213 1.0 3.0 0.00 0.00 0.00 64 1018.9
20260507220105 60 213 0.0 3.0 0.00 0.00 0.00 65 1018.9
20260507214605 60 212 0.0 3.0 0.00 0.00 0.00 65 1019.0
20260507214105 60 212 1.0 3.0 0.00 0.00 0.00 65 1019.1
20260507213605 60 210 1.0 3.0 0.00 0.00 0.00 64 1019.1
20260507213104 60 210 0.0 3.0 0.00 0.00 0.00 66 1019.0
20260507212605 61 210 0.0 3.0 0.00 0.00 0.00 64 1019.0
20260507212104 61 210 0.0 5.0 0.00 0.00 0.00 64 1019.0
20260507211105 61 206 0.0 3.0 0.00 0.00 0.00 64 1018.9
20260507210605 61 195 1.0 3.0 0.00 0.00 0.00 67 1018.9
20260507205604 60 210 1.0 3.0 0.00 0.00 0.00 65 1018.9
20260507205105 60 210 1.0 3.0 0.00 0.00 0.00 64 1018.9
20260507204105 60 214 0.0 3.0 0.00 0.00 0.00 65 1018.9
20260507203606 60 214 1.0 3.0 0.00 0.00 0.00 65 1019.0
20260507203104 60 212 1.0 3.0 0.00 0.00 0.00 64 1019.0
20260507202604 60 211 0.0 3.0 0.00 0.00 0.00 65 1019.1
20260507202104 60 210 0.0 3.0 0.00 0.00 0.00 64 1019.0
20260507201604 60 212 1.0 3.0 0.00 0.00 0.00 64 1019.1
20260507200604 60 212 1.0 3.0 0.00 0.00 0.00 65 1019.2
20260507200104 60 209 1.0 3.0 0.00 0.00 0.00 64 1019.2
20260507195604 60 210 1.0 3.0 0.00 0.00 0.00 63 1019.3
20260507195104 60 212 0.0 3.0 0.00 0.00 0.00 65 1019.2
20260507194604 60 211 1.0 3.0 0.00 0.00 0.00 65 1019.3
20260507194105 61 211 0.0 3.0 0.00 0.00 0.00 65 1019.4
20260507193604 61 210 1.0 3.0 0.00 0.00 0.00 66 1019.4
20260507193104 60 214 0.0 3.0 0.00 0.00 0.00 66 1019.4
20260507192606 60 209 0.0 2.0 0.00 0.00 0.00 67 1019.4
20260507192105 60 209 1.0 3.0 0.00 0.00 0.00 67 1019.5
20260507191606 60 209 1.0 3.0 0.00 0.00 0.00 66 1019.5
20260507191105 60 212 1.0 3.0 0.00 0.00 0.00 65 1019.6
20260507190604 59 213 0.0 3.0 0.00 0.00 0.00 67 1019.5
20260507190105 59 213 0.0 3.0 0.00 0.00 0.00 67 1019.5
20260507185604 59 213 1.0 3.0 0.00 0.00 0.00 66 1019.5
20260507185104 59 210 1.0 3.0 0.00 0.00 0.00 68 1019.5
20260507184606 58 212 0.0 3.0 0.00 0.00 0.00 68 1019.6
20260507184106 58 211 0.0 3.0 0.00 0.00 0.00 68 1019.5
20260507183604 58 211 1.0 3.0 0.00 0.00 0.00 66 1019.6
20260507183105 58 215 1.0 3.0 0.00 0.00 0.00 67 1019.6
20260507182104 57 216 0.0 2.0 0.00 0.00 0.00 68 1019.6
20260507181604 57 218 0.0 3.0 0.00 0.00 0.00 67 1019.6
20260507181104 56 218 0.0 3.0 0.00 0.00 0.00 67 1019.6
20260507180605 56 216 0.0 3.0 0.00 0.00 0.00 68 1019.7
20260507180105 56 218 1.0 3.0 0.00 0.00 0.00 67 1019.7
20260507175605 56 221 0.0 3.0 0.00 0.00 0.00 69 1019.7
20260507175104 56 219 0.0 2.0 0.00 0.00 0.00 67 1019.8
20260507174105 55 220 0.0 2.0 0.00 0.00 0.00 68 1019.9
20260507173604 55 218 0.0 3.0 0.00 0.00 0.00 68 1019.9
20260507173104 55 218 0.0 3.0 0.00 0.00 0.00 68 1019.9
20260507172604 55 217 0.0 3.0 0.00 0.00 0.00 68 1019.9
20260507172104 55 220 1.0 3.0 0.00 0.00 0.00 68 1019.9
20260507171605 55 220 0.0 2.0 0.00 0.00 0.00 69 1019.8
20260507171106 55 218 0.0 1.0 0.00 0.00 0.00 69 1019.9
20260507170605 55 216 0.0 3.0 0.00 0.00 0.00 70 1019.8
20260507170106 55 220 0.0 3.0 0.00 0.00 0.00 69 1019.9
20260507165605 54 222 1.0 3.0 0.00 0.00 0.00 70 1019.9
20260507164104 54 222 0.0 1.0 0.00 0.00 0.00 69 1019.9
20260507163604 54 222 0.0 2.0 0.00 0.00 0.00 69 1020.0
20260507163105 54 221 1.0 3.0 0.00 0.00 0.00 69 1019.9
20260507162104 54 218 1.0 3.0 0.00 0.00 0.00 69 1019.9
20260507161605 54 220 0.0 2.0 0.00 0.00 0.00 70 1020.0
20260507160604 53 220 0.0 2.0 0.00 0.00 0.00 71 1020.0
20260507160104 53 219 0.0 2.0 0.00 0.00 0.00 71 1020.1
20260507155105 53 216 1.0 2.0 0.00 0.00 0.00 71 1020.1
20260507154604 53 218 0.0 3.0 0.00 0.00 0.00 72 1020.1
20260507153605 52 214 0.0 3.0 0.00 0.00 0.00 73 1020.1
20260507153104 52 213 0.0 2.0 0.00 0.00 0.00 73 1020.2
20260507152605 52 213 0.0 2.0 0.00 0.00 0.00 73 1020.2
20260507152104 52 213 0.0 2.0 0.00 0.00 0.00 73 1020.1
20260507151604 52 214 0.0 3.0 0.00 0.00 0.00 73 1020.1
20260507151104 52 218 0.0 3.0 0.00 0.00 0.00 73 1020.1
20260507150604 52 219 1.0 2.0 0.00 0.00 0.00 73 1020.0
20260507150104 52 215 0.0 2.0 0.00 0.00 0.00 73 1020.0
20260507145604 51 216 0.0 3.0 0.00 0.00 0.00 73 1020.0
20260507145104 51 215 0.0 3.0 0.00 0.00 0.00 73 1020.0
20260507144604 51 215 0.0 2.0 0.00 0.00 0.00 73 1020.0
20260507144104 51 217 1.0 2.0 0.00 0.00 0.00 73 1019.9
20260507143104 51 214 0.0 1.0 0.00 0.00 0.00 74 1020.0
20260507142604 51 214 0.0 1.0 0.00 0.00 0.00 73 1019.9
20260507142104 51 220 0.0 1.0 0.00 0.00 0.00 74 1019.9
20260507141603 51 217 0.0 2.0 0.00 0.00 0.00 74 1019.8
20260507141103 51 218 0.0 2.0 0.00 0.00 0.00 74 1019.8
20260507140605 50 216 0.0 1.0 0.00 0.00 0.00 74 1019.8
20260507140104 50 215 0.0 1.0 0.00 0.00 0.00 74 1019.7
20260507135604 50 215 0.0 0.0 0.00 0.00 0.00 74 1019.8
20260507135104 50 218 0.0 0.0 0.00 0.00 0.00 74 1019.7
20260507134603 50 219 0.0 0.0 0.00 0.00 0.00 74 1019.8
20260507134104 50 217 0.0 1.0 0.00 0.00 0.00 73 1019.8
20260507133604 50 215 0.0 2.0 0.00 0.00 0.00 73 1019.8
20260507133104 50 217 0.0 2.0 0.00 0.00 0.00 73 1019.8
20260507132604 50 217 0.0 3.0 0.00 0.00 0.00 74 1019.8
20260507132104 50 221 0.0 3.0 0.00 0.00 0.00 74 1019.9
20260507131604 50 220 0.0 2.0 0.00 0.00 0.00 74 1019.9
20260507131104 50 217 0.0 2.0 0.00 0.00 0.00 74 1019.8
20260507130103 50 214 0.0 2.0 0.00 0.00 0.00 74 1019.8
20260507125604 50 214 0.0 2.0 0.00 0.00 0.00 74 1019.8
20260507125103 50 214 0.0 3.0 0.00 0.00 0.00 74 1019.7
20260507124604 50 214 1.0 3.0 0.00 0.00 0.00 75 1019.8
20260507124103 50 219 0.0 1.0 0.00 0.00 0.00 75 1019.8
20260507123604 50 215 0.0 0.0 0.00 0.00 0.00 75 1019.8
20260507122604 50 214 0.0 1.0 0.00 0.00 0.00 75 1019.9
20260507122104 50 220 0.0 1.0 0.00 0.00 0.00 74 1019.9
20260507121604 50 214 0.0 1.0 0.00 0.00 0.00 75 1019.9
20260507121105 50 215 0.0 1.0 0.00 0.00 0.00 74 1019.9
20260507120605 50 216 0.0 1.0 0.00 0.00 0.00 74 1020.0
20260507120105 50 213 0.0 1.0 0.00 0.00 0.00 74 1020.1
20260507115603 51 214 0.0 1.0 0.00 0.00 0.00 74 1020.1
20260507115103 51 218 0.0 1.0 0.00 0.00 0.00 74 1020.1
20260507114604 51 214 0.0 0.0 0.00 0.00 0.00 74 1020.2
20260507113605 51 214 0.0 2.0 0.00 0.00 0.00 74 1020.2
20260507113104 51 216 0.0 3.0 0.00 0.00 0.00 75 1020.3
20260507112603 51 216 0.0 3.0 0.00 0.00 0.00 75 1020.3
20260507112104 51 214 0.0 1.0 0.00 0.00 0.00 75 1020.2
20260507111603 51 217 0.0 0.0 0.00 0.00 0.00 75 1020.2
20260507111103 51 218 0.0 0.0 0.00 0.00 0.00 75 1020.3
20260507110604 51 216 0.0 2.0 0.00 0.00 0.00 75 1020.4
20260507110103 51 219 0.0 2.0 0.00 0.00 0.00 75 1020.4
20260507105104 51 219 0.0 1.0 0.00 0.00 0.00 75 1020.4
20260507104604 51 213 0.0 3.0 0.00 0.00 0.00 75 1020.4
20260507104104 51 216 1.0 3.0 0.00 0.00 0.00 75 1020.5
20260507103603 51 218 0.0 2.0 0.00 0.00 0.00 75 1020.6
20260507103103 51 216 0.0 0.0 0.00 0.00 0.00 75 1020.6
20260507102604 51 220 0.0 1.0 0.00 0.00 0.00 75 1020.6
20260507102104 51 210 0.0 1.0 0.00 0.00 0.00 75 1020.6
20260507101604 51 213 0.0 1.0 0.00 0.00 0.00 75 1020.7
20260507101105 51 221 0.0 1.0 0.00 0.00 0.00 75 1020.7
20260507100605 51 215 0.0 2.0 0.00 0.00 0.00 75 1020.8
20260507100105 51 211 0.0 2.0 0.00 0.00 0.00 76 1020.8
20260507095104 51 214 0.0 3.0 0.00 0.00 0.00 76 1020.8
20260507094603 51 213 2.0 3.0 0.00 0.00 0.00 76 1020.8
20260507094104 51 215 0.0 2.0 0.00 0.00 0.00 76 1020.8
20260507093604 51 225 0.0 2.0 0.00 0.00 0.00 76 1020.8
20260507093104 51 217 0.0 1.0 0.00 0.00 0.00 76 1020.8
20260507092605 51 219 0.0 0.0 0.00 0.00 0.00 76 1020.8
20260507091603 51 212 0.0 0.0 0.00 0.00 0.00 75 1020.8
20260507090606 51 204 0.0 0.0 0.00 0.00 0.00 75 1020.9
20260507090105 51 327 0.0 0.0 0.00 0.00 0.00 75 1020.9
20260507085606 51 207 0.0 1.0 0.00 0.00 0.00 75 1020.9
20260507084606 51 205 0.0 2.0 0.00 0.00 0.00 75 1021.0
20260507084105 51 205 0.0 2.0 0.00 0.00 0.00 75 1021.0
20260507083606 51 205 0.0 2.0 0.00 0.00 0.00 75 1021.0
20260507083105 52 196 0.0 2.0 0.00 0.00 0.00 76 1021.0
20260507081605 51 218 0.0 0.0 0.00 0.00 0.00 75 1021.0
20260507080607 51 208 0.0 3.0 0.00 0.00 0.00 75 1021.1
20260507080106 52 216 0.0 3.0 0.00 0.00 0.00 75 1021.1
20260507075606 52 211 0.0 3.0 0.00 0.00 0.00 75 1021.1
20260507075106 52 226 0.0 3.0 0.00 0.00 0.00 75 1021.1
20260507074606 52 224 0.0 3.0 0.00 0.00 0.00 76 1021.0
20260507074105 52 211 0.0 2.0 0.00 0.00 0.00 76 1021.0
20260507073605 52 215 0.0 2.0 0.00 0.00 0.00 76 1021.0
20260507073106 52 214 0.0 1.0 0.00 0.00 0.00 76 1021.0
20260507072607 52 215 0.0 1.0 0.00 0.00 0.00 76 1021.1
20260507072105 52 215 0.0 1.0 0.00 0.00 0.00 76 1021.1
20260507071606 52 210 0.0 2.0 0.00 0.00 0.00 76 1021.1
20260507071110 52 213 0.0 2.0 0.00 0.00 0.00 76 1021.1
20260507070606 52 206 0.0 2.0 0.00 0.00 0.00 76 1021.1
20260507070106 52 212 0.0 1.0 0.00 0.00 0.00 76 1021.1
20260507065607 52 212 0.0 1.0 0.00 0.00 0.00 76 1021.0
20260507065106 52 212 0.0 1.0 0.00 0.00 0.00 76 1021.0
20260507064605 52 211 0.0 1.0 0.00 0.00 0.00 76 1021.0
20260507064105 52 211 0.0 2.0 0.00 0.00 0.00 76 1021.0
20260507063605 52 211 0.0 2.0 0.00 0.00 0.00 77 1021.0
20260507063107 52 211 0.0 1.0 0.00 0.00 0.00 77 1021.0
20260507062605 52 211 0.0 2.0 0.00 0.00 0.00 77 1021.0
20260507062107 52 211 0.0 2.0 0.00 0.00 0.00 77 1021.0
20260507061106 52 211 0.0 1.0 0.00 0.00 0.00 77 1021.1
20260507060606 52 211 0.0 1.0 0.00 0.00 0.00 77 1021.1
20260507060106 52 211 0.0 1.0 0.00 0.00 0.00 77 1021.1
20260507055106 52 211 0.0 2.0 0.00 0.00 0.00 77 1021.1
20260507054607 52 211 0.0 1.0 0.00 0.00 0.00 77 1021.1
20260507054106 52 211 0.0 1.0 0.00 0.00 0.00 77 1021.1
20260507053606 52 211 0.0 2.0 0.00 0.00 0.00 77 1021.1
20260507052606 52 211 0.0 1.0 0.00 0.00 0.00 77 1021.2
20260507052105 52 211 0.0 2.0 0.00 0.00 0.00 77 1021.2
20260507051605 53 211 0.0 2.0 0.00 0.00 0.00 78 1021.2
20260507051106 53 211 0.0 2.0 0.00 0.00 0.00 78 1021.3
20260507050106 53 211 0.0 1.0 0.00 0.00 0.00 78 1021.2
20260507045106 53 211 0.0 2.0 0.00 0.00 0.00 78 1021.3
20260507044106 53 211 0.0 2.0 0.00 0.00 0.00 79 1021.3
20260507043605 53 211 0.0 2.0 0.00 0.00 0.00 79 1021.3
20260507042605 53 211 0.0 1.0 0.00 0.00 0.00 79 1021.2
20260507042106 53 211 0.0 2.0 0.00 0.00 0.00 79 1021.2
20260507041605 53 211 0.0 2.0 0.00 0.00 0.00 79 1021.1
20260507040605 54 211 0.0 2.0 0.00 0.00 0.00 79 1021.1
20260507040105 54 211 1.0 2.0 0.00 0.00 0.00 80 1021.0
20260507035607 54 211 0.0 2.0 0.00 0.00 0.00 80 1021.0
20260507035106 54 211 0.0 2.0 0.00 0.00 0.00 80 1021.0
20260507034606 54 211 0.0 2.0 0.00 0.00 0.00 80 1020.9
20260507034105 54 211 0.0 2.0 0.00 0.00 0.00 80 1020.9
20260507033105 54 211 0.0 1.0 0.00 0.00 0.00 80 1020.8
20260507032606 55 211 0.0 1.0 0.00 0.00 0.00 80 1020.8
20260507032105 55 211 0.0 1.0 0.00 0.00 0.00 80 1020.8
20260507031605 55 211 0.0 1.0 0.00 0.00 0.00 80 1020.8
20260507031106 55 211 0.0 1.0 0.00 0.00 0.00 79 1020.8
20260507030605 55 211 0.0 0.0 0.00 0.00 0.00 79 1020.8
20260507025605 55 211 0.0 2.0 0.00 0.00 0.00 79 1020.7
20260507025105 55 211 0.0 2.0 0.00 0.00 0.00 79 1020.7
20260507024605 55 210 0.0 2.0 0.00 0.00 0.00 79 1020.6
20260507024106 55 209 0.0 2.0 0.00 0.00 0.00 79 1020.7
20260507023605 55 209 0.0 1.0 0.00 0.00 0.00 79 1020.6
20260507022607 55 209 0.0 3.0 0.00 0.00 0.00 80 1020.6
20260507022107 55 209 0.0 2.0 0.00 0.00 0.00 80 1020.6
20260507021606 55 209 0.0 2.0 0.00 0.00 0.00 81 1020.7
20260507021105 55 209 0.0 2.0 0.00 0.00 0.00 81 1020.7
20260507020605 55 209 0.0 1.0 0.00 0.00 0.00 81 1020.7
20260507015605 55 297 0.0 2.0 0.00 0.00 0.00 81 1020.8
20260507015107 56 209 0.0 1.0 0.00 0.00 0.00 81 1020.7
20260507014605 56 209 0.0 1.0 0.00 0.00 0.00 81 1020.7
20260507014105 56 209 0.0 1.0 0.00 0.00 0.00 81 1020.7
20260507013606 56 209 0.0 1.0 0.00 0.00 0.00 81 1020.7
20260507013106 56 209 0.0 1.0 0.00 0.00 0.00 81 1020.7
20260507012607 56 209 0.0 1.0 0.00 0.00 0.00 81 1020.7
20260507011606 56 206 0.0 1.0 0.00 0.00 0.00 81 1020.7
20260507011106 56 209 0.0 2.0 0.00 0.00 0.00 81 1020.8
20260507010605 56 209 0.0 2.0 0.00 0.00 0.00 81 1020.9
20260507010104 56 209 0.0 1.0 0.00 0.00 0.00 81 1020.8
20260507005605 56 209 0.0 1.0 0.00 0.00 0.00 81 1020.9
20260507005105 57 209 0.0 1.0 0.00 0.00 0.00 81 1020.9
20260507004606 57 209 0.0 1.0 0.00 0.00 0.00 81 1020.9